GFSFLT1_700_spd_027.txt.gz
Wind_Speed
15 19 22 21 20 19 19 19 19 18 17 16 15 14 13 11 8 6 6 5 5 6 8 9 11 14 16 18 20 23 25 29
16 16 19 18 17 16 15 16 16 15 13 13 13 12 11 10 10 9 8 8 8 9 11 11 13 15 18 20 24 27 30 33
17 18 19 17 15 14 13 11 10 10 10 12 12 13 12 14 11 10 12 13 13 13 13 14 16 19 22 26 30 33 35 38
13 13 14 15 15 15 14 13 13 12 12 13 12 14 14 14 14 13 15 16 18 17 16 17 19 23 27 31 34 36 42 45
14 10 11 9 9 13 12 12 12 12 13 14 14 13 16 14 17 19 18 18 20 21 22 23 25 28 32 35 36 39 45 49
18 18 15 13 12 9 12 14 14 14 16 17 16 14 15 17 20 21 23 24 25 25 26 28 30 32 37 42 47 37 41 40
21 20 20 20 19 19 17 14 15 16 17 18 17 13 15 16 20 19 23 22 25 27 27 33 32 32 34 32 38 34 39 41
21 22 24 25 22 22 20 20 19 17 18 22 20 16 19 18 20 23 28 25 26 26 28 30 28 31 35 37 37 34 39 35
22 23 23 24 24 24 21 23 20 18 19 24 23 26 28 25 28 27 27 27 27 29 30 28 31 39 38 35 39 39 37 39
17 20 20 20 21 22 19 20 20 19 20 21 22 24 23 23 24 23 24 25 26 27 26 29 37 35 35 39 34 40 40 41
7 10 13 13 16 19 21 16 18 20 20 20 22 26 24 26 26 27 22 24 27 28 24 32 31 40 33 37 41 39 50 36
6 9 12 12 14 19 15 18 17 15 15 17 20 23 24 27 27 28 29 30 28 24 24 31 33 38 36 39 41 47 40 34
7 7 11 6 6 9 10 10 11 12 16 19 22 24 24 26 29 31 33 29 27 18 28 33 34 43 44 47 47 42 33 39
4 6 6 6 7 7 9 12 17 20 20 21 24 28 30 31 30 30 28 26 27 27 27 37 35 41 36 43 47 33 40 35
13 11 9 12 13 14 17 20 23 23 24 25 28 32 34 33 32 32 29 28 27 26 34 38 40 44 47 47 31 38 41 37
17 15 17 17 18 20 23 23 23 25 28 31 33 35 38 39 36 34 28 26 30 34 38 45 53 52 50 38 39 39 39 35
19 21 21 21 21 22 24 24 25 27 30 33 35 31 30 31 30 27 26 29 34 37 43 42 42 33 38 38 39 40 42 33
23 23 21 20 20 21 22 25 29 31 30 27 25 25 25 26 25 26 27 32 38 45 50 45 44 39 37 38 39 45 36 33
19 18 17 17 19 22 26 29 28 26 25 25 26 28 28 28 27 27 30 36 46 43 46 38 34 34 35 39 42 35 35 33

GFSFLT1_700_spd_030.txt.gz
Wind_Speed
15 19 19 18 17 18 18 19 19 20 21 23 23 22 20 18 16 14 12 12 10 10 7 8 9 9 10 12 15 19 22 26
17 18 19 18 19 19 18 18 18 19 19 18 19 18 18 17 15 14 14 14 14 11 10 11 11 11 13 16 19 23 26 30
18 20 20 20 18 17 18 17 17 17 16 16 15 15 16 16 17 16 16 16 17 16 16 15 15 16 18 21 24 27 30 34
17 20 19 18 17 17 17 18 18 17 17 17 17 18 18 19 20 19 17 16 19 21 21 21 21 21 22 24 26 30 34 39
16 15 17 16 16 17 17 17 17 17 18 18 18 18 18 18 19 21 19 23 22 23 25 26 27 27 26 27 28 28 30 36
20 19 19 17 17 17 17 18 18 18 18 18 18 19 20 23 22 24 25 25 28 28 29 30 29 29 28 28 28 33 30 31
22 21 21 21 21 20 19 20 21 21 20 19 19 20 24 23 22 23 26 24 26 27 26 28 31 31 31 35 31 37 28 40
27 27 27 26 26 26 24 22 20 19 19 18 18 21 21 24 23 24 23 25 28 29 30 29 28 29 30 32 36 38 36 36
27 29 30 30 30 27 27 24 25 24 21 19 21 23 24 27 28 27 29 27 29 32 36 32 27 30 33 35 36 33 36 36
25 27 30 31 33 31 28 27 26 23 21 22 23 27 26 25 23 25 32 38 30 33 34 31 35 32 34 39 34 34 37 40
12 19 25 26 29 29 27 27 25 23 25 25 25 25 27 26 30 33 28 29 31 33 35 35 35 33 38 37 33 38 38 44
4 9 15 20 24 24 24 28 28 29 26 27 28 28 25 29 28 27 29 30 34 38 39 38 31 27 29 34 36 36 41 43
8 7 9 18 20 21 20 22 24 26 24 22 22 25 26 27 27 29 31 32 34 34 30 28 24 31 35 37 39 43 44 34
11 10 8 11 9 10 13 15 17 19 20 21 23 26 28 29 30 32 33 35 34 33 32 33 30 34 36 41 48 47 40 33
13 14 14 12 12 13 15 17 19 20 23 25 27 29 31 34 35 36 38 38 36 34 33 35 36 37 44 40 43 32 34 35
16 18 18 18 17 19 20 22 21 22 24 26 28 31 33 34 36 36 35 36 37 34 30 36 40 37 41 47 41 37 35 36
17 17 21 20 22 23 24 23 25 25 25 28 31 34 36 35 32 32 33 34 32 32 33 37 41 46 44 35 32 35 36 37
19 21 23 23 22 20 20 20 21 24 28 31 33 31 29 30 31 32 32 32 30 31 34 34 35 35 28 30 32 36 38 38
22 22 21 19 18 18 19 21 25 28 29 28 27 28 30 31 33 33 34 35 32 34 36 34 32 29 29 30 34 37 38 37

GFSFLT1_700_spd_036.txt.gz
Wind_Speed
5 7 11 17 20 19 20 21 21 20 23 26 31 30 22 21 20 19 19 17 17 16 15 14 12 15 16 16 16 16 17 17
5 11 13 13 13 13 12 11 13 15 17 18 22 22 20 20 19 17 20 19 15 15 16 13 15 17 18 19 20 19 22 23
6 10 11 13 11 13 13 12 13 14 15 17 18 18 18 18 17 16 19 17 13 15 17 17 18 22 24 23 21 24 27 26
12 12 10 10 12 12 12 12 13 14 16 17 19 19 21 21 18 16 17 16 17 16 18 22 21 24 29 28 27 29 31 33
11 17 16 13 13 13 13 13 12 13 14 17 16 17 18 16 14 15 18 19 21 23 23 22 23 26 31 32 32 32 35 38
19 14 16 14 14 14 15 15 15 16 17 17 20 18 17 18 20 18 19 19 22 23 26 27 28 32 32 39 36 36 37 38
22 19 16 20 19 19 19 18 18 19 18 19 19 18 20 22 22 24 22 22 24 26 30 28 30 32 34 34 38 36 38 40
25 24 23 22 23 22 22 23 22 22 22 22 22 22 24 25 27 28 24 22 23 22 29 32 38 49 40 36 28 35 43 40
21 26 29 27 23 24 23 23 23 24 25 26 23 25 27 28 32 33 27 24 22 20 30 33 33 28 29 30 32 33 36 37
24 25 28 31 31 29 28 27 26 26 27 25 25 31 31 36 32 30 30 24 23 27 31 29 31 28 29 32 34 33 30 31
16 23 24 31 33 34 36 35 29 31 33 34 33 35 36 40 29 28 29 25 28 28 30 32 31 30 30 32 31 34 42 34
13 19 26 26 31 35 39 34 25 32 37 38 37 34 34 33 23 22 23 26 28 29 31 32 34 34 34 35 33 36 35 35
10 10 9 11 22 32 31 34 34 38 32 35 33 33 32 28 22 22 23 27 28 30 34 35 35 36 36 37 34 35 45 40
13 16 14 14 16 18 28 37 40 33 26 30 29 32 28 25 23 23 25 27 29 33 36 37 37 39 39 36 39 35 36 36
14 16 17 15 17 20 23 24 23 23 23 27 26 24 22 24 24 26 29 31 33 35 36 38 37 34 31 35 33 34 32 33
14 17 23 21 18 20 23 23 21 18 20 23 23 20 23 26 29 31 33 33 35 37 35 33 35 30 32 32 36 38 37 39
18 17 24 25 24 25 26 25 23 24 24 23 24 26 30 31 34 33 35 36 34 32 33 33 34 32 32 36 35 37 36 37
24 23 23 25 26 26 25 29 30 28 27 28 30 33 32 30 32 35 36 35 34 33 33 33 34 33 32 32 33 33 34 35
26 30 28 25 23 24 25 29 30 30 32 27 25 26 29 31 32 31 31 32 33 33 32 32 32 31 31 30 31 33 33 33

GFSFLT1_700_spd_039.txt.gz
Wind_Speed
6 10 14 16 19 20 19 18 20 17 14 18 19 22 33 38 38 33 28 25 21 19 16 14 12 12 12 11 13 15 15 18
4 8 10 11 12 12 15 18 19 22 24 27 30 33 35 32 27 23 22 20 19 18 17 13 10 12 12 14 16 18 18 22
6 9 9 9 8 11 12 14 16 17 21 23 27 27 23 22 22 22 20 17 17 18 18 14 12 14 16 18 20 21 23 27
9 11 8 8 8 8 9 12 15 16 19 21 22 20 21 22 23 19 19 18 16 17 18 17 15 18 19 22 23 26 28 32
9 13 13 10 11 11 11 11 13 16 17 18 19 18 18 18 19 19 18 19 19 19 20 18 18 20 23 24 27 34 30 37
8 12 14 13 15 12 10 10 10 12 13 14 14 14 16 18 19 18 21 20 19 19 20 22 23 22 26 30 34 31 26 35
12 11 15 16 17 17 17 17 17 16 15 15 15 13 16 18 18 17 18 19 19 22 22 24 25 24 25 29 35 30 29 26
18 16 19 19 19 20 21 20 19 19 20 20 17 14 16 16 20 23 23 22 25 26 20 22 22 27 28 30 28 25 24 28
24 14 17 19 22 22 22 22 22 21 20 19 21 21 20 20 21 26 27 28 26 22 25 24 22 20 23 27 27 27 28 28
27 26 21 14 20 21 22 25 25 25 25 25 24 24 25 27 27 29 28 24 29 28 19 23 23 25 26 27 28 29 31 30
24 31 24 23 21 20 25 26 25 25 27 29 31 27 30 32 34 32 31 29 22 20 20 24 28 27 27 29 30 32 34 31
14 24 30 29 32 31 33 31 35 26 37 31 33 33 36 38 38 37 34 28 18 18 22 25 25 28 31 32 34 35 36 36
23 20 25 28 25 25 38 40 41 36 27 22 28 34 33 36 28 30 27 11 16 19 22 25 27 31 33 36 38 37 31 34
22 19 16 16 19 28 34 31 30 31 30 25 21 23 25 20 17 22 20 16 17 23 25 28 30 33 35 37 34 33 30 35
22 23 21 20 18 20 23 28 28 24 22 23 23 26 23 20 17 20 20 21 24 28 30 31 34 34 32 31 32 28 33 27
23 23 22 19 17 20 21 24 28 29 29 26 20 19 18 18 19 20 22 26 30 31 33 36 33 30 30 31 27 30 31 34
27 24 23 25 25 22 24 23 23 25 23 22 23 21 20 22 23 26 30 31 30 33 34 31 30 30 30 30 31 29 31 30
30 31 27 28 30 22 24 25 23 25 29 30 26 24 25 27 30 30 27 30 33 32 30 29 29 30 30 30 30 29 30 29
26 27 28 29 30 29 24 25 28 27 30 30 28 29 30 30 27 29 32 32 29 28 29 30 31 30 30 29 29 28 28 27

GFSFLT1_700_spd_042.txt.gz
Wind_Speed
5 6 7 9 6 7 18 22 22 21 19 22 21 26 24 42 42 31 40 36 33 31 22 18 13 10 11 10 11 11 9 11
5 5 5 4 8 11 10 11 16 22 26 30 31 26 28 32 36 40 42 35 35 26 21 18 12 11 13 12 12 12 12 15
7 8 7 4 4 9 10 14 15 18 24 27 26 26 28 31 32 37 35 35 29 25 23 16 15 15 14 15 14 14 17 21
10 9 8 7 8 8 11 12 13 17 22 27 29 29 30 29 29 28 31 29 25 24 22 21 18 18 17 16 15 18 22 25
11 14 12 10 11 12 12 14 16 17 18 20 22 23 21 20 21 24 24 23 21 20 23 23 20 20 18 17 18 21 20 30
7 11 14 13 15 13 13 14 17 17 18 17 17 19 22 22 23 22 22 23 23 22 24 25 26 24 22 22 21 21 23 27
7 8 13 16 18 18 18 18 18 18 19 18 17 17 20 24 24 22 22 23 25 27 27 27 29 27 25 22 22 25 23 25
14 15 19 20 21 20 18 17 16 16 16 16 16 16 19 21 20 20 23 25 24 25 27 29 24 25 24 23 22 24 27 26
13 17 18 19 21 22 21 21 18 18 18 18 19 20 22 23 23 24 26 25 25 24 29 22 23 24 20 19 21 23 26 27
16 17 14 17 20 22 23 23 22 23 23 22 23 23 24 26 26 28 28 28 27 28 28 25 30 28 24 22 24 27 29 30
21 22 22 19 17 15 20 21 21 21 24 29 29 28 29 30 32 32 32 34 31 28 22 24 22 24 18 23 28 31 33 34
21 23 24 24 25 25 23 24 30 33 32 27 24 30 29 32 36 36 38 39 42 14 19 21 20 25 24 28 32 34 37 35
20 18 22 26 32 32 31 33 33 33 33 34 31 25 30 36 38 42 21 46 40 6 12 15 17 22 25 29 33 37 35 37
21 17 20 24 22 28 33 32 30 26 32 35 40 27 28 31 19 17 25 19 39 12 14 15 18 23 29 33 35 36 37 38
21 20 21 20 19 20 23 25 22 24 28 28 28 28 18 16 17 19 23 17 17 20 21 21 24 29 31 33 33 32 33 33
28 27 25 25 22 21 21 23 24 22 24 24 23 23 21 17 16 19 18 18 19 22 25 27 29 31 32 31 31 31 32 34
28 31 29 31 29 26 27 23 24 25 23 23 26 25 23 20 21 20 20 22 24 26 27 28 30 32 32 31 31 32 30 29
30 33 31 31 32 28 24 25 25 26 25 24 25 27 27 25 23 24 25 25 28 27 30 32 33 31 30 29 28 27 28 28
29 30 31 31 29 29 32 30 27 27 26 28 27 27 28 28 29 28 28 25 27 29 30 30 29 29 27 27 28 28 29 29

GFSFLT1_700_spd_045.txt.gz
Wind_Speed
6 6 8 8 1 12 23 16 19 24 16 17 23 39 40 46 41 43 39 36 34 34 28 28 22 15 13 12 11 11 12 15
5 5 5 7 7 3 5 17 23 23 23 19 23 28 35 45 43 44 38 36 38 32 31 30 22 18 15 14 13 13 14 16
4 3 3 4 4 5 5 7 11 21 22 24 24 30 30 36 45 45 39 40 39 37 33 32 25 20 16 15 14 14 16 16
6 6 4 2 1 3 6 7 9 12 21 26 28 29 30 35 35 36 38 33 38 37 35 30 25 20 19 17 17 18 17 18
7 9 5 4 4 3 4 6 11 15 19 22 23 22 22 26 28 30 35 39 40 37 35 30 27 24 21 20 21 21 19 17
7 5 8 9 9 7 7 7 9 10 14 18 17 18 18 22 25 26 29 30 33 33 31 32 29 27 24 26 26 23 22 23
11 9 12 15 14 13 12 10 10 10 10 11 11 13 15 17 18 20 22 22 25 27 30 28 28 27 29 30 29 27 27 26
15 17 14 17 19 16 15 14 12 11 12 13 13 14 17 17 19 19 20 20 24 27 28 30 32 31 34 36 34 30 26 27
16 15 16 17 18 20 19 18 17 17 16 16 17 18 18 18 21 24 27 29 29 30 32 33 34 38 43 36 32 29 27 23
15 10 16 18 20 18 20 21 21 21 20 20 20 21 22 23 26 30 30 30 28 30 33 35 32 45 31 27 28 25 23 28
15 14 15 14 14 18 19 20 22 22 25 27 28 28 26 25 29 31 32 33 33 34 37 38 38 42 27 19 26 27 28 31
17 15 15 17 20 22 21 21 20 24 26 27 28 22 26 31 29 38 37 37 35 35 42 40 38 25 19 27 31 32 34 36
22 16 15 17 21 26 28 27 27 26 27 28 30 30 32 21 31 31 35 36 35 23 29 36 12 17 26 25 29 32 35 38
21 20 19 17 16 20 24 26 27 28 28 28 31 30 30 29 28 19 24 16 21 19 16 12 17 24 26 27 30 33 37 37
19 19 17 16 16 18 17 17 16 19 24 27 28 28 26 26 26 20 24 22 22 19 21 19 19 24 27 29 32 34 37 37
24 25 23 20 22 19 21 16 13 19 23 25 22 23 24 23 22 23 20 20 20 22 22 23 24 27 30 33 35 35 36 38
28 24 26 24 25 23 23 23 21 18 22 26 25 22 23 22 22 22 22 22 23 24 25 26 28 31 33 33 35 36 36 35
29 28 32 29 28 25 26 27 27 27 28 25 24 25 25 27 26 27 26 25 27 28 29 31 30 29 32 33 34 33 33 35
28 34 26 29 30 30 29 29 30 32 31 26 24 24 26 26 28 30 29 30 31 32 33 29 29 31 32 33 32 32 33 33

GFSFLT1_700_spd_048.txt.gz
Wind_Speed
8 8 10 9 4 14 22 12 16 20 19 14 20 37 39 39 43 38 37 35 33 26 25 23 25 21 20 14 12 13 14 15
6 5 6 7 7 4 12 26 19 22 24 22 21 30 35 38 42 43 41 38 34 29 28 27 26 23 18 17 17 16 17 14
5 4 5 6 6 6 4 18 23 21 24 24 23 30 29 39 39 42 43 40 35 35 36 29 28 27 22 19 20 16 16 16
6 4 2 4 5 4 3 4 16 26 23 27 18 29 31 34 39 42 40 40 41 36 26 31 34 29 25 22 21 18 18 18
9 7 3 1 1 4 5 5 4 10 20 27 24 26 28 30 30 34 41 38 39 36 35 39 37 32 28 24 23 23 22 21
10 7 7 7 5 3 1 5 7 7 10 12 14 14 19 26 27 31 37 35 33 36 35 37 37 34 31 29 28 27 27 26
11 12 13 13 10 7 5 4 5 7 10 12 12 12 14 17 18 20 24 29 32 33 35 35 34 35 31 32 31 33 33 32
16 14 11 13 14 12 10 8 8 9 9 10 11 12 14 15 17 18 20 22 25 25 30 30 31 32 34 34 34 36 37 40
17 17 15 10 10 12 13 12 12 11 11 11 12 14 16 17 17 18 20 21 22 25 29 30 32 35 37 39 41 43 39 43
17 18 17 17 14 10 9 14 15 15 14 14 14 15 16 17 19 22 23 25 26 29 31 33 36 38 41 45 48 50 47 51
20 19 16 17 16 15 14 13 13 17 20 20 20 20 22 23 25 26 27 29 31 33 35 37 39 44 46 47 50 47 36 22
17 16 16 15 17 15 14 15 16 15 18 20 22 23 25 29 31 29 34 34 37 37 37 40 47 46 48 43 43 32 19 27
16 16 17 17 17 18 19 20 22 21 22 23 23 23 30 31 30 34 18 27 26 41 40 49 50 41 36 46 20 24 27 33
23 25 23 20 21 19 19 22 24 24 25 28 27 27 27 27 26 33 22 25 17 12 22 17 22 27 22 23 29 32 32 32
24 22 22 21 19 16 14 10 12 18 19 21 24 26 25 25 24 26 33 27 24 25 23 25 25 21 22 26 29 33 33 36
21 23 24 22 20 13 16 14 11 13 12 11 11 18 22 23 26 28 26 29 25 25 23 25 25 28 28 29 31 33 34 36
26 24 23 25 25 22 18 18 17 15 18 20 19 22 22 25 24 26 26 25 25 24 23 24 26 27 29 32 35 36 37 39
29 26 24 27 28 25 24 19 20 21 21 23 26 28 27 25 26 26 27 27 26 25 27 28 29 29 32 35 37 38 40 41
27 29 32 32 31 30 24 22 22 24 25 27 28 31 30 25 25 27 27 28 29 31 31 32 31 33 35 36 37 37 38 39

GFSFLT1_700_spd_054.txt.gz
Wind_Speed
11 11 8 8 9 7 15 16 14 10 9 15 18 34 31 41 43 56 50 42 34 32 31 27 24 20 14 12 12 12 14 17
12 10 7 7 6 4 10 15 17 18 18 20 20 27 32 35 40 37 42 38 38 34 32 29 26 22 18 15 16 14 15 16
11 11 7 5 5 3 3 13 16 19 14 18 19 21 20 22 34 42 44 44 38 35 33 30 29 24 24 22 19 18 16 16
10 12 9 5 3 3 3 5 21 16 22 21 19 26 29 36 33 48 50 46 42 37 33 32 30 27 28 25 22 19 17 16
10 10 11 8 4 2 2 2 13 18 19 29 21 28 24 37 36 43 50 49 46 40 37 35 32 32 32 29 28 22 21 20
12 9 12 13 8 5 4 2 4 12 23 21 19 32 18 23 37 41 45 48 46 45 44 42 40 38 34 31 30 26 25 23
13 14 14 15 13 9 7 7 6 7 9 17 22 23 27 20 25 34 36 47 49 49 46 46 42 41 42 35 35 32 30 29
12 17 13 12 14 12 10 9 9 11 13 12 13 17 22 23 23 27 32 34 41 48 51 48 44 45 42 40 34 37 36 37
9 15 18 13 14 16 14 12 11 11 12 14 14 14 15 16 19 21 28 32 31 39 40 40 38 40 41 40 41 42 42 42
11 14 20 19 16 16 16 15 14 13 13 13 14 14 14 12 13 14 15 15 17 20 27 33 36 37 38 38 41 43 44 44
15 15 21 22 19 18 19 21 19 17 16 15 15 14 14 15 15 13 12 13 14 16 18 22 26 28 31 36 40 42 44 45
11 14 17 24 25 21 20 21 22 22 21 21 21 19 19 20 19 18 18 17 19 21 23 26 27 30 33 37 39 40 44 44
7 9 14 21 25 25 23 24 25 22 22 24 24 25 26 25 23 22 23 25 26 26 29 33 35 39 40 43 42 42 47 49
8 5 10 17 25 25 25 24 23 24 24 25 25 26 27 26 26 27 29 29 28 29 33 35 34 34 36 44 50 58 55 48
15 14 13 15 16 24 23 24 26 27 28 29 31 31 30 29 27 28 30 31 33 33 35 36 37 40 39 41 38 37 42 43
21 18 19 20 21 23 29 28 29 30 30 30 32 32 32 33 32 29 30 33 34 35 37 39 37 43 43 43 38 29 33 37
25 26 24 21 21 24 20 26 30 34 31 27 26 26 29 29 28 25 23 28 32 36 40 41 41 43 46 47 46 40 42 43
28 28 28 25 23 28 25 24 29 30 28 29 28 29 29 28 28 27 26 26 27 29 37 40 39 40 43 44 47 47 43 47
32 31 31 31 29 30 29 32 31 35 32 27 31 32 34 32 32 32 30 31 32 29 31 37 37 38 38 39 42 45 44 45

GFSFLT1_700_spd_057.txt.gz
Wind_Speed
13 11 9 10 12 10 11 16 18 11 14 7 8 21 43 42 39 46 40 39 36 37 37 31 26 27 24 21 18 15 14 16
15 12 9 8 10 8 5 14 16 15 9 6 14 35 35 31 39 46 45 46 47 47 38 36 28 27 24 19 17 16 14 14
14 13 10 7 8 7 6 10 14 14 10 11 12 20 25 33 35 40 51 50 47 42 41 37 28 30 27 22 20 17 17 16
13 12 12 8 7 9 4 6 12 16 15 16 17 20 33 33 32 30 42 52 51 48 44 35 35 32 30 24 23 18 23 19
12 12 11 9 8 9 5 3 8 17 16 20 24 20 25 24 23 24 32 49 48 44 41 37 39 34 34 29 27 25 22 25
13 13 12 12 11 8 7 3 4 14 21 20 25 20 20 19 23 25 37 42 48 48 47 42 41 39 38 34 33 31 26 28
14 15 16 14 11 11 8 6 3 6 14 17 25 21 21 21 24 34 33 38 40 41 48 45 44 42 40 38 35 34 31 34
16 14 15 14 9 11 10 7 6 5 7 12 17 22 21 27 19 21 33 39 35 46 50 47 48 47 43 41 39 37 34 38
9 9 12 16 12 11 12 11 9 8 7 9 12 15 18 24 25 20 24 31 32 37 45 47 43 43 43 46 42 38 39 38
11 12 13 16 17 14 13 14 13 11 12 12 13 14 16 17 20 21 21 23 26 29 30 34 42 40 43 39 40 42 43 42
14 16 17 18 19 18 16 17 17 15 14 14 15 14 14 16 17 16 16 18 22 24 28 30 34 38 39 42 41 39 42 42
7 13 17 19 22 23 21 20 20 21 20 19 17 16 17 18 18 18 17 18 19 22 22 25 27 28 31 36 35 35 37 39
6 7 11 16 20 28 25 23 24 23 23 23 22 22 22 21 19 18 19 20 22 23 25 27 28 29 31 34 35 34 35 39
8 13 11 9 15 22 28 27 25 26 26 26 26 26 27 26 24 24 25 25 26 28 30 30 30 32 35 37 39 38 36 37
12 11 13 17 13 13 22 28 28 28 28 29 28 27 25 24 26 29 31 32 33 34 33 33 34 35 37 38 37 40 40 39
18 11 11 11 21 20 20 23 32 27 30 31 28 29 31 33 33 33 34 32 33 35 36 36 37 39 40 41 40 42 46 46
26 25 24 21 12 22 24 25 28 36 35 34 32 34 32 34 37 39 40 40 36 37 37 37 39 41 43 44 43 44 46 47
31 30 29 27 27 19 23 25 29 29 32 38 40 39 34 33 32 36 37 37 35 32 33 34 35 37 39 42 45 47 49 50
33 39 39 34 31 32 32 29 31 35 32 33 38 39 35 35 35 36 34 35 34 34 35 35 35 34 35 37 39 41 44 47

GFSFLT1_700_spd_060.txt.gz
Wind_Speed
15 10 12 11 11 15 13 9 12 17 19 16 18 19 21 22 33 28 39 39 45 37 40 35 35 33 30 27 24 21 18 16
20 12 11 12 8 12 10 8 13 16 17 12 15 7 14 26 37 39 33 44 47 43 38 39 38 33 29 25 24 20 18 17
23 11 10 11 8 10 10 8 11 12 13 10 5 11 17 35 35 32 31 44 48 51 46 39 35 32 29 25 24 21 20 17
22 11 8 9 8 8 8 8 7 12 15 14 10 15 26 36 36 30 34 49 53 52 46 33 36 34 35 33 25 22 20 18
22 14 7 9 8 6 8 8 8 8 16 15 14 14 20 24 26 21 26 37 48 47 44 37 39 43 41 34 26 27 23 20
22 21 11 9 8 6 5 7 8 7 10 15 16 18 15 19 21 21 23 29 42 44 45 43 43 40 43 32 32 30 28 24
20 23 17 12 8 5 5 6 6 7 7 13 16 18 20 20 26 26 22 26 35 44 46 48 46 46 43 37 36 34 30 29
18 22 21 12 8 4 5 5 6 6 6 8 13 21 20 19 21 22 23 26 32 40 49 49 48 46 42 41 39 37 36 35
14 20 21 12 9 8 8 6 6 7 6 6 9 15 24 19 24 18 22 22 23 29 41 45 47 43 41 41 42 41 41 41
14 17 19 12 13 11 9 10 9 8 8 8 7 9 15 18 20 23 21 20 26 32 34 32 40 43 40 40 45 46 45 45
12 12 17 17 16 15 14 13 13 11 11 11 10 9 10 12 14 17 18 20 25 31 36 37 40 43 42 46 45 46 48 47
4 6 10 16 22 19 16 18 16 17 15 14 14 14 13 13 12 14 16 18 20 24 26 30 33 37 40 38 41 44 48 45
4 5 8 15 22 22 21 20 22 19 18 18 18 18 18 18 16 15 17 18 19 19 21 24 26 28 31 32 33 34 38 40
3 4 9 13 11 16 18 16 21 24 22 21 21 23 23 22 21 21 22 22 22 22 24 25 24 26 28 30 32 34 36 37
9 10 6 6 9 18 18 18 16 23 28 27 25 25 25 24 24 26 27 27 27 27 28 28 29 29 30 32 33 34 36 37
17 16 16 14 10 12 14 25 24 20 26 34 31 29 27 28 28 28 29 31 33 33 33 33 33 34 34 34 36 38 39 40
21 19 23 23 25 22 17 16 26 32 27 29 33 37 35 33 34 35 36 35 36 37 37 37 36 38 35 35 38 41 42 43
25 25 26 25 23 20 27 28 28 21 33 29 30 37 41 39 38 40 39 38 40 42 44 44 44 40 38 37 37 41 44 43
26 27 28 31 33 33 27 26 29 29 25 34 32 32 34 40 46 46 42 40 39 39 41 44 43 39 38 37 37 41 41 42

GFSFLT1_700_spd_063.txt.gz
Wind_Speed
21 17 15 11 10 8 12 13 8 12 18 18 17 20 22 27 22 30 34 31 31 30 37 32 29 26 29 30 28 23 21 20
22 20 14 10 10 7 10 10 9 11 16 18 17 23 26 22 27 31 28 29 33 37 41 40 40 35 33 31 28 25 24 22
25 18 12 9 9 7 8 9 9 10 14 16 16 16 15 24 28 30 34 29 38 41 42 43 42 36 39 33 32 29 25 22
25 21 11 9 8 7 6 9 8 9 11 12 14 10 18 24 22 34 28 32 40 40 45 43 38 43 34 31 31 31 27 21
22 19 14 10 6 8 5 7 8 8 7 8 13 10 2 10 27 37 32 29 33 47 43 48 44 40 34 33 32 35 39 23
23 21 17 13 6 7 6 5 7 7 5 6 12 11 7 10 21 31 14 20 37 48 49 49 49 37 38 35 36 40 30 23
24 20 19 16 10 6 7 3 5 6 6 4 7 10 11 12 20 31 23 21 30 40 36 46 49 43 43 42 36 37 34 29
25 22 16 12 8 7 7 5 3 5 5 4 5 7 13 14 14 19 23 19 25 33 44 47 45 45 43 41 40 42 37 33
19 17 14 10 5 9 7 6 4 3 4 3 3 6 13 15 15 15 15 20 17 20 29 38 42 39 41 40 42 41 37 33
12 13 14 12 7 4 9 7 7 5 4 5 4 4 6 12 13 16 19 19 22 22 22 27 35 38 41 44 47 44 41 42
11 8 8 6 6 7 7 11 9 10 9 7 7 6 5 7 11 12 15 17 19 26 27 25 27 35 43 44 42 44 46 41
7 13 11 10 10 7 10 9 14 14 14 10 10 9 8 8 8 10 12 16 16 16 22 27 30 32 33 36 37 41 46 43
16 12 13 10 11 13 13 10 10 17 16 17 14 13 13 13 12 12 14 15 16 16 18 22 25 28 28 31 31 36 40 41
12 13 8 10 17 9 11 12 10 10 16 18 20 19 18 16 16 17 18 19 20 21 22 21 23 25 28 29 31 33 35 36
14 12 8 11 12 16 16 17 17 10 11 18 21 23 23 23 22 23 24 24 25 26 25 25 27 27 29 30 31 32 33 32
18 14 11 10 14 16 17 19 21 20 19 17 20 24 27 28 29 28 29 30 30 31 31 32 33 33 32 32 33 33 35 36
13 19 20 21 18 15 15 14 22 26 28 25 23 21 26 29 32 35 35 35 35 37 36 36 38 38 38 37 37 37 38 39
21 19 19 18 21 23 25 24 18 17 24 31 31 26 28 28 32 36 37 39 42 43 43 43 43 43 41 41 41 43 42 42
17 18 18 17 20 21 24 24 25 28 26 25 30 37 33 30 34 35 37 42 45 46 46 46 47 48 48 47 46 47 47 46

GFSFLT1_700_spd_066.txt.gz
Wind_Speed
22 19 19 18 15 14 15 11 7 4 11 15 18 21 20 19 19 23 26 29 30 29 28 33 37 35 32 32 30 29 26 25
22 20 14 15 13 13 14 12 8 3 9 14 18 19 23 22 26 23 22 34 32 29 27 36 41 42 34 34 35 32 30 27
22 13 12 14 12 12 11 12 8 5 9 13 18 19 21 24 28 24 30 34 28 27 31 37 43 41 36 34 33 34 28 27
20 12 10 11 10 11 10 11 7 6 6 12 15 19 20 26 32 33 31 37 30 29 34 43 45 40 40 35 33 33 31 33
22 13 13 10 10 11 10 11 7 5 2 11 12 13 11 17 29 31 29 33 34 31 38 45 46 41 40 40 38 34 32 34
24 12 12 11 11 12 11 10 8 5 4 3 11 12 10 21 29 36 38 38 31 32 43 46 46 47 45 43 40 38 33 32
25 14 15 15 12 12 12 9 8 6 5 2 3 7 9 12 23 30 31 29 28 36 44 45 42 43 45 41 46 29 28 33
27 20 20 12 9 10 11 7 6 5 5 4 2 2 5 8 8 18 30 29 25 32 42 44 43 43 40 48 33 31 33 40
26 20 19 14 8 9 11 7 5 5 4 5 3 2 1 6 7 10 24 23 18 19 22 34 44 44 46 45 36 35 37 37
23 20 16 12 8 5 9 9 7 5 4 4 4 1 1 2 7 11 16 22 20 18 20 26 33 36 35 38 42 43 45 43
24 16 12 8 6 6 3 7 10 10 7 5 5 4 2 3 8 12 13 18 19 24 26 26 27 35 41 42 41 44 46 49
21 19 15 10 7 2 3 4 5 11 12 10 8 7 7 6 5 8 12 14 18 18 25 30 30 28 32 39 41 40 41 41
29 27 25 18 13 9 5 1 2 3 10 14 12 12 11 10 9 9 10 11 14 16 18 20 26 29 31 33 35 37 39 40
25 21 23 25 22 20 16 12 9 5 4 6 13 16 16 15 15 15 15 15 15 17 18 18 20 24 28 30 32 34 37 38
19 18 18 20 22 21 18 16 14 11 10 10 13 9 11 17 21 21 21 21 22 23 23 23 25 25 27 29 32 32 33 33
15 14 12 13 15 16 17 18 17 17 18 18 17 15 14 14 17 23 26 28 29 29 30 31 31 32 32 33 33 34 37 38
7 6 8 8 9 11 14 17 21 23 21 23 24 23 24 25 25 24 22 24 30 35 36 36 37 37 36 37 38 39 41 42
9 7 6 13 16 14 15 18 19 22 25 26 29 32 32 31 30 32 33 31 30 33 36 41 42 42 42 42 44 47 47 47
14 14 11 12 10 11 14 18 17 20 23 25 28 31 33 35 38 39 37 35 37 37 37 38 40 44 47 48 50 51 52 53

GFSFLT1_700_spd_069.txt.gz
Wind_Speed
29 30 24 18 19 19 18 14 15 15 15 15 17 16 11 13 9 23 26 28 29 28 32 35 36 34 35 39 29 28 26 25
26 26 23 19 13 16 16 13 13 12 15 12 17 17 17 16 16 16 16 27 23 27 31 29 27 30 31 29 33 32 32 29
24 25 19 12 12 15 14 12 11 11 12 13 15 15 15 19 16 17 21 26 27 32 31 37 33 35 34 33 34 35 33 32
25 22 16 16 11 12 13 11 9 9 12 12 14 18 21 23 25 31 22 29 29 29 31 31 33 35 37 35 35 36 35 34
29 25 17 14 10 9 10 11 9 8 9 8 12 13 16 16 19 21 33 25 30 38 33 31 34 38 41 39 34 35 33 33
26 29 22 13 11 11 10 10 8 7 6 4 11 13 13 12 15 23 28 39 27 35 29 35 39 40 37 41 39 37 37 36
30 29 26 18 16 13 10 11 8 5 5 2 6 13 13 13 14 17 33 36 31 34 32 31 38 42 42 40 39 39 39 33
30 29 27 20 17 9 10 9 7 5 4 2 2 8 11 10 9 16 24 31 36 34 33 30 34 47 46 46 44 43 44 42
30 29 27 20 12 9 9 8 6 4 4 2 1 2 6 9 8 11 22 24 22 23 23 27 39 44 39 42 42 44 44 40
25 30 25 18 14 8 7 9 7 5 4 4 3 1 1 5 8 11 15 20 27 21 17 23 27 41 39 42 40 48 48 51
24 27 25 17 13 10 7 5 6 7 5 4 4 3 3 2 5 6 11 14 18 16 17 19 23 31 38 37 39 40 40 46
27 29 26 21 18 15 11 6 4 5 7 7 6 4 3 3 4 5 7 12 18 19 22 21 23 22 26 30 33 34 36 35
32 33 30 28 24 19 14 12 9 8 8 8 9 9 7 5 5 7 8 10 13 17 22 25 26 29 31 29 32 35 38 41
36 33 33 30 27 24 20 18 15 13 12 12 12 11 11 10 9 9 10 13 15 18 20 22 23 26 32 35 38 37 37 40
33 33 34 32 28 23 19 18 15 10 9 10 12 11 14 15 15 15 15 15 17 19 21 22 25 27 27 28 31 34 36 37
19 26 26 27 26 23 22 20 17 16 18 17 16 16 17 16 18 19 21 21 22 24 25 25 27 28 30 32 33 33 33 36
16 12 9 11 10 10 10 13 16 18 18 21 21 22 22 22 23 25 24 24 26 28 30 31 32 33 33 35 37 39 40 41
8 9 1 3 3 5 9 15 19 22 25 26 28 28 28 28 28 29 29 29 32 33 34 36 39 38 37 39 40 43 46 47
8 8 7 5 6 12 16 19 16 18 21 23 25 28 29 29 31 33 34 34 34 34 35 39 42 41 40 41 42 44 45 48

GFSFLT1_700_spd_072.txt.gz
Wind_Speed
17 21 24 24 22 18 17 19 19 18 18 15 12 17 16 14 12 13 23 32 29 31 38 34 35 34 30 29 25 23 24 24
21 24 26 24 22 17 15 17 18 16 16 14 10 16 15 15 11 9 12 18 35 29 34 33 33 32 30 28 25 23 27 26
25 23 23 24 21 16 14 15 16 15 14 12 9 14 15 14 12 7 3 17 30 38 36 36 35 35 33 35 32 33 32 27
23 24 21 19 18 11 12 13 14 13 13 11 9 15 18 18 18 13 13 12 17 22 27 35 37 37 35 30 29 27 24 30
24 22 20 17 14 12 11 10 12 11 11 10 6 12 17 16 17 16 14 17 19 22 21 30 38 40 38 32 32 32 30 31
28 22 19 18 14 15 14 9 10 9 9 9 6 11 14 15 18 22 20 21 26 29 26 28 27 32 31 38 38 35 32 32
24 23 21 24 17 17 15 11 9 6 7 7 7 7 11 13 15 18 17 22 27 25 26 32 32 29 35 36 39 41 36 34
20 23 26 20 22 20 16 12 9 5 4 4 3 5 9 11 12 14 17 24 31 32 23 27 28 28 35 37 35 37 42 37
21 18 23 21 22 20 14 12 9 7 5 3 0 1 4 7 8 9 11 11 28 29 26 28 31 27 30 40 42 42 39 42
25 21 24 22 24 19 15 13 12 9 8 5 4 3 1 3 5 4 3 10 18 18 26 36 24 28 25 34 40 39 38 37
25 26 26 28 27 23 17 16 15 13 9 7 6 5 5 3 2 2 3 7 18 20 19 19 19 20 24 28 30 33 39 39
24 32 29 32 28 26 19 15 13 14 13 11 9 8 6 4 4 5 5 5 8 15 15 17 17 18 20 20 34 31 35 38
24 29 34 32 29 26 22 19 15 15 14 14 12 10 8 6 5 5 6 7 8 10 14 13 15 21 22 23 27 32 31 33
23 31 33 34 32 31 30 26 20 14 12 11 11 11 11 10 9 8 7 8 9 10 12 13 14 15 18 23 29 32 32 35
19 27 31 33 32 31 27 21 17 14 12 11 10 11 14 14 14 13 12 12 12 12 13 14 16 19 22 24 24 26 27 29
14 19 22 33 31 30 25 19 15 15 16 14 12 11 13 12 13 14 15 16 16 18 19 19 20 21 23 24 27 29 30 32
19 16 14 10 11 11 19 23 15 20 15 15 14 13 14 16 17 17 18 19 20 20 19 20 24 26 27 29 31 33 34 37
17 19 16 11 8 4 3 3 6 8 11 14 17 19 20 19 20 20 21 22 24 26 28 29 31 32 34 33 34 37 38 41
13 15 16 9 9 4 3 7 9 11 15 17 19 21 23 24 26 28 29 29 28 29 30 31 32 35 37 40 42 43 43 46

GFSFLT1_700_spd_075.txt.gz
Wind_Speed
23 21 19 18 20 21 21 16 17 18 17 16 15 13 16 19 17 17 22 31 29 30 26 21 28 36 33 31 29 27 24 22
26 24 23 21 23 20 19 17 18 18 16 15 13 9 14 17 14 13 16 26 34 30 32 28 33 36 31 30 30 27 26 27
28 27 26 22 19 19 16 18 18 16 14 13 12 9 14 16 15 14 12 14 32 35 27 33 38 35 35 31 30 28 27 25
31 31 27 23 18 14 15 17 18 15 13 12 12 10 17 18 18 15 8 3 22 28 25 36 35 32 31 30 28 26 24 23
31 32 29 22 19 17 17 18 16 14 12 10 9 8 13 15 16 15 12 4 7 30 29 34 36 34 34 34 32 32 31 35
25 28 25 21 17 20 18 16 13 11 10 7 7 7 12 16 16 17 13 15 13 13 18 18 31 37 36 36 37 34 31 27
26 27 27 22 20 21 19 18 13 11 9 6 5 5 10 14 16 17 16 16 21 22 22 23 21 32 38 40 39 37 32 29
20 29 26 22 24 21 20 18 15 13 10 7 5 4 10 13 15 16 16 17 25 21 27 23 25 31 29 31 27 32 30 35
23 21 24 24 25 26 22 17 13 13 12 9 5 4 6 10 11 12 13 14 23 26 25 26 21 27 28 23 34 34 34 31
28 27 23 25 28 30 25 18 16 15 13 10 7 5 4 7 7 7 8 8 12 34 30 23 25 23 27 22 26 35 34 35
23 31 27 27 28 31 25 19 18 19 16 13 11 7 5 5 6 5 5 7 11 18 21 25 25 25 25 22 29 25 34 36
26 30 30 30 29 33 27 23 22 19 19 16 13 11 8 5 3 3 3 5 10 17 18 19 25 26 25 24 25 30 25 27
30 29 25 25 35 36 30 26 25 24 21 18 15 12 11 9 8 6 4 4 5 9 10 13 15 22 23 24 23 25 28 34
19 26 30 27 40 38 37 33 31 24 17 16 15 14 13 12 11 9 9 8 8 8 8 9 10 10 12 16 17 25 28 31
15 26 21 32 37 38 37 34 28 19 16 16 15 15 14 14 12 11 10 9 8 9 10 11 12 13 14 14 15 17 21 25
8 13 20 24 29 35 36 32 25 18 17 16 13 12 12 11 11 11 12 11 12 12 14 13 14 15 17 18 20 22 23 24
21 19 16 18 20 27 28 28 24 22 20 17 14 16 14 12 12 13 13 12 13 14 16 17 17 22 20 21 22 24 26 28
22 20 21 22 22 20 19 22 24 23 26 22 19 14 12 12 12 14 15 16 17 18 19 22 26 29 29 29 30 31 32 34
15 22 19 16 15 15 14 11 10 11 13 13 11 11 13 14 16 18 20 22 23 23 24 25 27 29 29 30 32 34 36 37

GFSFLT1_700_spd_078.txt.gz
Wind_Speed
27 32 31 26 25 24 21 22 20 16 15 18 19 16 17 18 20 22 24 24 26 30 30 27 23 24 35 41 32 31 30 28
29 31 31 29 29 27 22 21 21 17 16 19 18 17 17 17 18 18 19 19 33 23 36 28 35 23 32 36 34 33 32 29
35 33 32 31 31 27 24 20 22 18 17 18 18 18 16 16 18 15 13 13 19 33 36 36 32 32 28 36 32 33 34 31
32 37 34 32 30 26 22 20 20 19 17 18 18 17 14 16 18 17 18 16 18 31 39 33 33 33 34 36 34 35 32 29
30 36 36 33 30 26 22 20 19 19 17 17 17 15 10 14 18 18 18 18 11 23 34 29 36 30 37 35 34 34 32 30
26 31 38 37 33 29 23 22 19 17 16 16 15 12 11 16 19 19 19 14 10 14 21 24 33 38 35 37 35 36 33 31
29 29 35 41 34 29 27 24 20 17 15 15 13 10 10 14 16 17 17 15 14 13 25 21 30 34 35 33 34 34 32 32
25 25 30 32 31 25 27 25 21 19 15 14 12 9 9 14 16 17 17 18 17 16 16 16 23 28 36 37 36 37 36 34
22 23 27 31 31 27 28 26 22 21 17 15 12 9 9 12 14 16 16 18 19 21 28 26 19 25 26 34 36 37 35 34
25 23 25 29 27 28 30 25 23 22 18 15 13 10 8 10 12 13 14 15 19 24 25 23 25 25 21 29 27 29 27 30
27 29 26 22 23 30 33 30 27 23 20 17 14 11 9 9 10 10 10 10 12 19 28 29 26 25 25 18 28 21 23 29
24 28 29 39 27 26 35 34 30 27 22 19 16 13 11 9 9 8 7 6 8 9 19 29 32 22 24 22 22 22 24 26
25 30 33 35 29 27 34 35 32 30 24 20 18 15 13 11 10 9 8 7 6 10 11 17 20 24 27 26 26 23 25 26
23 29 31 36 32 31 36 38 37 33 25 21 21 19 17 15 13 11 10 10 9 11 11 13 12 12 17 23 29 28 27 26
15 25 32 31 24 32 41 41 40 31 22 20 20 20 20 19 17 16 13 12 12 13 14 15 17 16 16 17 17 18 19 24
11 17 22 19 24 35 41 42 38 28 23 20 18 18 18 18 18 17 17 17 17 17 18 19 20 21 20 20 20 21 22 22
17 14 16 22 25 32 32 36 33 28 25 23 19 18 18 17 16 16 16 16 16 16 18 21 22 21 22 23 25 26 26 27
25 27 25 23 22 25 26 27 26 24 24 25 23 19 17 19 19 19 19 18 18 18 19 19 21 22 22 23 24 25 27 29
16 25 25 27 27 29 26 26 27 28 30 27 28 30 27 19 18 17 18 18 18 19 20 22 23 24 23 24 24 27 31 34

GFSFLT1_700_spd_084.txt.gz
Wind_Speed
27 26 30 30 29 33 36 37 30 27 32 25 23 22 21 21 19 19 19 18 25 26 26 25 23 28 29 20 23 32 31 29
22 24 25 31 31 35 40 35 30 30 32 26 23 22 23 21 21 21 21 21 24 25 26 24 23 26 29 19 31 38 33 35
22 24 26 31 36 36 41 32 31 31 29 24 24 23 24 21 24 22 22 21 26 24 23 22 23 27 27 25 33 34 32 30
24 25 28 34 34 34 38 33 30 30 28 25 24 24 24 22 24 23 17 15 18 19 19 20 23 26 26 31 27 39 29 33
26 25 30 30 33 38 40 33 32 29 28 27 24 23 21 23 23 20 14 15 17 18 18 17 16 30 30 36 31 37 31 35
27 27 27 36 37 34 36 34 35 30 29 26 24 22 20 23 21 16 14 18 22 18 20 18 24 25 30 33 35 36 43 34
23 25 28 28 39 33 33 34 32 26 25 24 23 21 20 21 19 12 14 18 22 22 22 20 22 24 32 35 35 30 37 31
22 23 26 26 37 34 31 35 31 26 22 23 22 20 18 20 17 11 13 18 20 19 21 22 18 17 31 32 37 33 29 30
16 18 22 23 40 35 29 33 33 29 23 24 23 21 17 19 16 10 10 14 18 18 15 10 12 21 27 24 35 35 35 31
19 13 18 13 26 31 34 31 34 31 25 26 25 21 18 18 14 10 9 12 17 14 13 10 10 17 25 23 30 32 31 31
20 19 20 21 22 30 34 31 34 34 28 29 28 21 19 16 12 11 10 9 10 11 12 14 11 10 15 23 25 28 30 33
18 23 20 25 28 32 27 30 31 32 31 33 27 22 19 16 13 10 11 8 8 11 12 15 18 17 14 17 26 26 23 31
17 22 25 24 23 25 28 37 35 31 35 33 28 22 18 16 14 12 11 9 7 7 8 9 18 19 21 21 17 20 24 33
12 18 23 24 27 23 25 31 31 29 35 35 29 23 19 18 17 15 13 11 8 5 6 4 15 20 17 21 21 19 18 14
9 12 18 23 26 27 24 26 29 31 35 34 32 27 23 21 21 18 16 15 12 9 9 10 12 21 22 20 18 17 20 21
10 11 15 18 20 20 25 24 26 29 35 38 36 33 26 22 22 18 17 16 15 12 11 11 13 15 18 21 20 19 23 21
13 11 15 17 20 24 25 29 28 28 30 36 37 32 27 25 23 20 19 20 19 17 16 15 15 15 15 15 16 17 17 22
13 11 13 20 23 22 24 31 29 29 28 29 33 31 30 27 25 24 19 20 20 20 20 20 20 19 19 18 19 20 21 21
16 16 11 19 26 29 29 30 30 31 30 32 31 30 28 25 24 22 18 18 18 19 21 22 22 23 21 22 22 23 22 23

GFSFLT1_700_spd_087.txt.gz
Wind_Speed
24 27 30 31 35 43 37 42 30 29 31 28 29 26 23 21 20 21 22 22 21 22 20 21 19 22 24 22 25 26 27 28
26 23 26 26 32 44 38 41 34 33 28 29 30 27 22 21 22 21 24 22 22 23 22 23 23 23 23 25 27 27 28 39
34 31 28 30 34 40 38 37 36 32 28 30 28 27 23 23 24 22 26 23 22 22 24 24 24 24 25 23 26 22 29 34
30 33 24 27 33 40 37 38 35 34 31 29 30 28 25 25 23 25 26 23 20 21 26 25 21 23 24 23 29 24 40 35
28 31 26 25 28 34 35 34 32 34 33 30 28 26 23 24 23 25 23 21 17 17 20 21 22 21 20 26 30 30 44 36
26 23 28 25 26 32 36 35 33 37 33 29 27 25 25 25 22 23 20 19 17 18 18 20 19 17 18 25 30 39 32 38
29 29 31 31 29 31 32 30 31 33 34 29 26 26 25 24 20 20 18 16 17 18 19 20 22 21 24 25 33 39 34 39
28 28 31 36 31 35 36 34 31 30 32 26 26 27 26 21 19 16 16 14 14 17 18 21 24 25 23 25 33 33 36 34
23 26 31 36 32 36 35 31 28 29 31 26 24 26 25 21 17 14 14 12 12 16 17 19 19 20 19 25 33 38 29 30
17 23 26 30 27 34 36 31 28 28 31 29 23 25 24 20 15 13 14 10 11 15 16 14 16 13 18 26 26 36 31 30
21 22 19 17 25 36 36 33 31 28 31 31 24 25 26 19 16 13 12 9 10 11 14 19 16 11 17 28 23 22 33 25
19 26 24 17 21 28 24 24 29 26 29 26 24 26 27 19 16 13 12 9 8 10 10 12 15 14 14 22 24 24 25 36
17 25 24 20 21 18 17 17 22 20 25 28 28 27 26 21 17 14 12 9 8 8 9 9 15 17 12 14 18 24 25 24
14 21 25 25 22 21 23 24 25 24 26 25 29 29 28 23 19 16 13 12 10 8 8 9 13 21 20 18 18 23 18 19
4 11 22 25 27 28 27 26 25 30 33 28 33 32 31 27 21 19 17 14 12 9 8 7 8 19 18 21 19 19 22 22
8 7 13 14 19 22 21 22 20 23 34 29 33 34 33 27 23 20 18 16 13 12 9 9 7 19 23 19 17 16 16 21
9 9 8 14 13 15 16 19 21 24 25 28 32 32 32 27 23 23 20 20 17 15 14 12 11 12 18 23 22 20 23 24
12 8 6 10 17 16 18 17 22 24 24 26 27 27 30 29 28 25 24 23 22 19 18 18 16 15 16 18 19 20 19 23
15 13 9 12 15 20 25 15 25 29 26 27 24 23 30 31 33 31 28 27 25 24 22 23 22 19 19 20 20 20 18 20

GFSFLT1_700_spd_090.txt.gz
Wind_Speed
30 25 32 24 39 54 48 40 39 38 34 31 33 30 30 28 23 20 19 20 22 21 20 21 23 24 23 27 27 30 28 26
37 32 27 34 32 35 42 42 36 39 37 31 31 31 30 28 24 21 21 21 22 23 23 25 25 24 23 25 28 29 30 29
33 41 38 30 34 35 39 42 36 41 37 34 24 30 27 29 26 24 23 22 24 25 26 26 27 24 23 26 27 29 28 28
32 33 41 36 33 36 44 41 37 41 37 32 27 26 29 31 31 25 22 23 24 25 27 25 26 25 25 27 26 25 27 29
30 26 32 43 38 34 38 39 39 41 35 35 28 25 31 30 24 22 23 22 24 26 25 23 26 26 25 25 23 26 28 30
26 27 31 34 39 31 30 34 39 35 34 35 27 26 29 27 28 24 21 21 23 24 21 21 26 27 25 20 22 25 23 30
28 26 30 31 35 27 21 34 36 33 34 29 29 29 29 30 29 23 19 20 22 21 20 21 23 25 25 22 17 22 32 38
24 25 30 30 32 30 25 27 32 31 28 28 26 28 29 30 29 23 19 19 20 17 17 20 23 24 26 28 29 28 30 33
14 21 28 25 25 27 33 33 34 29 27 28 26 29 31 32 27 22 18 19 17 14 17 21 23 25 25 31 29 29 37 37
22 21 26 23 21 22 28 30 30 32 30 26 29 30 29 29 26 21 18 19 12 14 18 21 21 22 25 27 27 20 35 37
18 22 21 21 22 25 29 33 35 32 29 29 29 30 25 26 25 21 17 18 10 13 15 18 20 21 22 19 26 25 34 34
11 17 21 17 19 24 28 35 35 33 32 30 32 30 25 24 23 20 18 16 10 12 13 13 17 18 19 17 15 23 28 34
8 11 17 16 16 17 23 28 39 28 33 30 30 28 27 22 23 22 19 13 10 11 12 14 17 18 18 16 22 22 25 25
16 11 14 15 17 10 13 16 23 7 33 26 24 28 25 21 24 24 18 16 13 12 11 12 14 15 18 11 16 23 23 28
11 13 14 16 14 10 13 10 16 15 21 23 22 23 26 25 26 26 21 18 14 11 10 10 9 13 20 17 16 14 22 21
9 8 11 13 12 12 11 12 11 16 21 33 22 25 23 22 27 26 21 17 15 13 12 9 7 10 19 19 18 15 19 16
8 8 6 11 12 10 9 9 12 16 19 23 17 19 21 24 27 26 24 20 18 16 15 12 10 11 17 20 17 17 17 23
10 8 9 8 12 14 12 8 11 17 18 21 22 22 22 21 27 30 30 27 22 19 18 17 15 14 17 21 25 22 22 22
14 10 12 14 5 11 16 12 17 16 24 24 21 23 25 25 26 24 29 32 27 24 22 21 20 19 19 22 26 28 28 29

GFSFLT1_700_spd_093.txt.gz
Wind_Speed
35 36 34 33 30 37 39 48 40 38 35 35 31 29 30 30 34 30 25 21 18 17 17 18 19 20 21 25 27 26 28 27
40 40 39 39 36 36 37 44 48 44 41 42 39 41 36 35 34 33 27 23 20 19 20 21 19 20 20 25 27 29 30 29
42 49 38 39 40 37 35 38 43 43 42 38 40 41 35 37 31 29 28 25 22 21 22 23 21 22 22 27 29 31 31 33
36 40 44 35 38 43 38 36 37 37 41 41 36 37 35 35 29 27 30 25 23 21 24 25 23 22 23 28 27 29 29 32
30 36 37 37 35 43 45 34 36 38 39 40 37 36 34 22 29 28 28 25 23 22 25 25 24 20 24 28 28 29 29 30
26 30 32 30 34 36 42 35 33 34 39 36 37 35 36 32 28 26 28 27 23 23 25 25 22 21 27 28 28 28 29 29
24 26 28 24 28 28 39 38 32 34 35 36 37 35 35 28 27 28 30 28 24 23 25 23 22 22 27 27 26 26 26 30
21 20 23 19 22 28 30 37 30 32 33 32 33 34 33 33 27 29 29 27 25 24 25 22 20 21 25 29 28 28 25 25
23 16 12 16 20 21 26 28 27 31 32 29 33 33 32 29 28 28 29 27 26 25 22 22 21 22 25 28 29 31 31 33
19 23 11 13 13 14 22 29 28 24 31 33 35 31 32 28 28 28 27 29 24 24 20 20 20 25 27 29 31 32 38 33
13 17 16 16 14 13 21 26 31 28 33 43 29 31 28 29 28 25 28 27 23 22 20 19 19 23 26 29 30 33 33 29
16 12 13 17 18 22 23 23 30 32 33 34 31 29 27 30 27 26 27 24 22 20 20 17 18 25 27 27 32 32 28 31
17 11 10 7 18 17 22 22 27 32 38 37 29 29 30 29 28 27 25 25 20 21 21 17 18 19 21 22 24 20 18 22
17 14 9 7 9 14 16 20 26 28 32 30 31 28 32 30 25 26 25 24 20 22 20 14 14 16 19 19 21 21 16 25
16 16 10 4 7 9 17 18 23 27 34 37 46 35 32 31 28 27 24 23 21 21 17 15 14 13 12 17 15 13 22 17
13 13 11 7 2 8 8 11 13 10 17 27 29 37 27 27 26 25 23 20 20 20 17 17 14 11 12 16 16 14 14 18
12 13 14 7 3 3 4 8 14 11 17 19 5 28 19 21 22 24 16 13 17 20 19 18 15 12 11 17 21 15 16 15
11 10 11 14 3 6 8 6 10 12 14 15 16 13 24 19 21 21 20 20 22 22 22 21 17 13 14 12 14 15 14 13
11 11 10 11 12 3 8 8 11 14 16 24 18 27 27 20 23 24 23 28 26 28 27 24 20 17 16 20 22 22 20 20

GFSFLT1_700_spd_096.txt.gz
Wind_Speed
38 40 38 38 33 33 33 30 36 43 45 43 39 37 32 28 30 34 34 30 26 24 22 17 14 14 17 19 21 25 24 23
36 38 44 45 40 37 37 37 34 36 47 47 45 45 36 29 31 33 35 33 28 26 24 21 17 16 16 19 21 26 26 27
37 32 40 46 47 43 37 40 37 33 35 49 48 44 38 34 34 34 37 36 31 27 26 22 20 19 19 21 24 26 29 28
37 32 31 37 45 47 44 39 40 35 35 38 47 42 39 40 38 39 39 39 30 28 26 24 22 21 22 23 25 26 29 29
42 36 32 32 32 37 43 39 40 36 32 35 43 45 43 37 35 43 41 34 32 28 27 25 23 22 24 25 25 28 29 31
39 38 33 31 29 29 34 34 38 41 35 30 34 37 42 35 36 30 18 19 23 29 27 25 24 24 24 24 24 27 29 28
38 31 24 24 20 25 25 28 31 36 39 30 32 36 35 35 34 29 27 23 27 30 27 25 24 25 25 23 24 27 28 29
34 23 19 23 20 19 21 27 30 34 36 28 28 33 36 32 29 34 24 28 28 29 25 24 25 26 25 24 26 31 30 30
28 23 19 14 15 15 19 25 29 27 32 29 32 34 37 30 36 35 29 30 29 27 26 25 25 26 24 24 27 31 31 31
29 19 11 9 13 10 15 19 23 28 31 33 33 34 31 36 39 39 31 31 30 30 26 25 25 25 24 24 26 28 31 33
29 28 15 12 8 10 12 16 21 25 21 22 32 33 33 37 44 25 30 30 32 28 26 24 24 24 22 25 27 28 31 31
31 28 20 13 11 10 10 13 18 24 22 18 21 30 34 33 33 27 31 31 29 27 25 24 23 22 23 26 25 27 30 35
24 29 23 11 9 11 13 16 17 19 25 24 24 27 29 37 28 28 30 29 29 27 24 24 22 20 24 26 25 31 32 33
21 23 22 15 5 7 17 15 18 22 23 27 31 41 35 39 29 31 32 30 29 27 25 21 19 20 24 21 20 22 28 26
19 19 19 14 8 4 10 18 20 20 24 23 25 29 33 31 31 31 29 32 30 29 23 18 18 20 22 17 17 14 15 14
17 16 14 11 10 12 11 6 13 17 12 13 25 34 42 30 39 31 30 33 30 26 19 16 18 19 20 16 12 13 14 20
15 16 14 13 8 6 8 8 9 11 14 14 13 24 24 33 44 34 33 28 23 19 16 14 15 19 19 16 13 15 12 15
11 12 11 12 10 6 6 9 7 11 14 12 18 17 9 28 37 32 28 23 21 20 17 16 16 18 19 15 13 15 16 9
10 9 9 9 13 12 7 6 10 11 15 10 11 8 8 26 36 23 20 21 21 19 17 17 20 18 20 17 12 12 14 15

GFSFLT1_700_spd_099.txt.gz
Wind_Speed
24 28 31 33 36 38 36 36 36 37 43 53 49 50 48 45 41 33 30 33 38 35 31 27 24 22 19 18 19 20 22 22
24 26 31 37 37 39 42 40 39 39 39 38 54 53 50 48 46 36 32 32 37 39 34 30 27 24 21 18 20 21 24 24
24 26 29 32 36 37 43 45 44 44 44 43 41 51 53 51 47 39 33 33 39 41 36 32 29 26 24 21 20 22 25 27
29 33 35 35 37 35 37 42 45 46 44 44 40 43 51 54 49 42 39 38 36 38 38 35 32 29 26 24 21 23 25 26
35 39 36 32 31 33 34 36 42 44 45 41 42 39 43 52 51 47 46 44 41 43 46 37 34 31 28 25 23 24 25 29
38 42 45 32 30 37 35 32 32 37 47 43 40 40 41 44 49 46 42 42 41 45 55 37 32 33 28 25 24 25 27 30
38 43 40 32 28 21 22 28 33 35 41 42 40 38 36 38 43 44 39 40 36 40 48 40 37 32 29 25 25 25 26 29
40 39 32 29 25 22 25 25 29 34 35 38 38 41 35 33 37 40 41 40 27 17 22 34 31 31 27 26 25 26 27 30
33 35 31 29 22 21 22 20 22 28 30 32 37 35 31 36 37 37 38 36 39 34 27 26 30 28 28 25 26 24 28 32
29 30 32 34 17 15 14 15 19 23 26 29 32 33 31 32 37 37 37 39 37 27 32 28 32 30 26 25 25 23 25 33
30 31 30 32 20 12 12 10 15 19 27 27 29 28 31 34 39 38 36 39 42 32 28 31 31 29 26 25 24 23 25 27
32 33 28 29 21 16 14 9 13 18 20 22 23 27 30 33 37 39 38 40 39 25 30 32 30 28 25 26 23 21 23 27
29 33 29 25 20 14 13 16 12 14 18 21 18 21 17 25 28 30 34 34 35 32 31 32 29 27 26 24 21 21 25 31
34 32 27 23 18 15 11 10 8 13 18 16 21 19 23 20 25 24 25 26 34 26 29 31 30 27 22 22 22 22 27 30
30 27 24 22 16 15 17 6 10 15 18 23 17 17 19 19 26 27 29 32 42 32 32 31 29 23 22 22 20 22 24 20
17 20 21 20 18 13 14 15 13 14 15 25 28 25 23 34 38 37 39 37 38 35 32 30 28 23 21 19 19 18 17 15
18 18 16 16 16 12 12 13 14 16 12 12 18 22 23 22 32 31 31 35 33 32 31 28 25 21 18 18 17 17 18 18
15 16 12 11 12 14 11 12 8 11 10 9 14 19 17 18 21 31 33 31 31 28 29 27 26 21 17 16 16 17 19 18
11 11 8 9 11 14 13 12 11 9 11 17 12 8 10 12 14 28 43 37 30 27 26 26 24 18 16 15 16 15 18 16

GFSFLT1_700_spd_102.txt.gz
Wind_Speed
22 23 24 26 29 31 33 34 39 41 46 51 52 53 58 54 51 45 40 43 39 38 38 38 35 32 29 25 22 21 23 24
17 20 23 27 31 34 36 37 38 44 47 49 50 54 58 57 56 52 54 51 41 39 38 37 37 34 31 27 24 23 23 24
13 16 19 23 32 37 38 38 42 42 52 53 51 48 47 55 58 56 56 52 45 40 39 37 38 35 34 30 27 25 23 25
14 18 23 27 29 35 40 39 46 49 46 56 55 50 49 48 52 60 56 56 47 41 40 38 39 37 35 33 30 27 25 26
21 25 27 31 32 34 35 39 40 42 43 50 57 54 52 48 40 44 57 58 52 43 40 42 42 40 37 35 32 30 28 28
21 24 29 33 35 35 33 36 38 42 38 43 53 53 48 41 41 40 51 58 51 48 50 56 39 32 40 39 35 31 30 31
23 26 30 32 31 38 39 30 27 29 35 38 43 49 44 40 40 41 41 51 53 50 47 49 41 40 54 41 37 33 33 34
23 28 25 32 30 34 36 28 24 25 31 37 39 44 43 43 42 44 43 46 48 47 45 44 46 43 48 60 38 35 34 35
26 32 30 33 33 33 30 23 21 26 28 31 33 40 43 43 44 44 38 39 41 44 42 37 29 47 60 39 41 34 36 33
28 30 31 32 32 32 28 22 19 19 20 26 31 36 43 41 44 37 43 40 45 48 46 39 29 33 39 39 36 34 34 32
27 29 31 28 30 29 29 21 18 11 15 18 23 25 30 36 35 35 36 42 42 46 42 46 50 35 29 37 36 34 33 31
26 30 33 29 29 27 23 16 16 12 16 20 24 25 30 35 34 37 36 32 40 39 39 48 46 29 31 33 35 33 32 29
29 33 32 31 30 26 26 17 23 14 15 20 25 28 33 32 33 33 36 35 36 37 44 43 42 33 35 36 34 31 29 29
36 32 29 28 28 28 26 25 14 16 19 21 23 21 22 27 25 26 31 32 36 39 34 35 40 34 37 36 32 30 25 23
25 24 24 23 27 28 26 22 20 16 9 24 24 25 21 22 23 19 23 25 34 39 34 37 34 34 34 30 30 27 25 24
20 21 20 21 24 25 26 20 15 19 17 16 19 26 28 13 20 20 22 26 26 26 26 34 35 33 31 30 28 26 25 24
20 21 21 18 20 18 19 17 15 10 7 10 14 26 27 24 19 19 31 28 27 31 35 41 43 39 31 30 29 26 23 22
17 16 15 13 14 13 14 14 11 11 9 14 9 6 11 23 27 27 30 32 38 45 47 42 47 37 33 30 29 26 24 21
10 12 10 10 10 10 11 14 16 13 9 8 8 7 5 10 10 15 21 27 28 33 43 41 37 34 33 31 30 26 22 20

GFSFLT1_700_spd_105.txt.gz
Wind_Speed
17 17 23 23 25 25 27 30 34 40 48 50 50 51 53 52 52 52 50 48 46 46 44 43 41 40 38 34 30 29 26 23
9 19 22 23 26 28 29 31 34 37 39 44 50 55 57 59 59 57 57 53 53 48 47 46 43 41 39 38 33 33 29 26
11 17 19 20 24 27 29 30 31 35 41 45 49 54 55 57 58 62 59 58 57 54 49 48 42 42 40 39 36 34 33 30
15 16 19 22 25 28 29 32 35 35 37 45 51 55 55 59 59 58 56 59 59 62 57 54 44 44 41 40 38 37 34 33
15 15 16 19 23 26 28 30 31 34 35 43 51 54 57 58 58 47 52 49 51 54 54 51 50 47 43 41 41 38 37 35
12 12 14 19 22 24 27 32 33 32 38 39 44 48 46 48 55 47 51 50 44 39 52 56 55 50 44 42 44 39 38 38
13 15 18 22 24 28 32 34 35 37 35 34 36 39 43 43 45 52 50 50 46 44 46 56 55 50 47 46 54 41 37 37
15 17 21 23 26 28 33 36 34 35 30 30 30 34 37 43 40 48 46 46 46 47 43 50 52 50 49 51 49 37 37 39
16 19 21 25 28 28 30 32 33 34 26 26 29 31 35 36 35 43 44 44 46 43 38 42 46 52 49 47 45 37 40 41
16 19 22 27 30 30 31 30 30 28 22 25 25 28 29 31 34 41 43 43 42 40 41 43 49 51 49 49 46 42 43 51
21 25 29 34 33 31 30 29 30 26 22 22 19 20 22 23 27 37 41 41 39 37 36 42 47 45 44 40 48 49 40 41
25 29 35 41 34 32 31 29 28 27 23 20 19 21 18 21 26 31 37 36 39 35 36 36 40 45 47 44 38 42 44 43
32 36 38 35 30 31 30 28 28 28 29 24 20 22 23 23 28 31 33 35 37 36 35 38 38 38 46 47 47 38 43 40
30 30 30 28 26 28 27 27 27 27 23 27 23 24 24 25 30 29 31 33 35 32 32 35 36 39 45 49 52 30 28 34
25 24 24 25 26 27 26 25 26 26 26 22 31 25 30 27 28 30 32 34 38 35 35 34 32 35 37 33 35 40 34 33
22 21 22 24 25 23 23 23 23 22 21 16 21 14 22 26 27 23 33 33 39 49 39 37 38 41 36 38 40 35 34 35
19 19 22 23 20 18 18 18 19 17 15 13 13 14 18 18 31 20 24 24 18 36 38 36 36 36 37 34 28 31 34 33
16 17 18 17 13 11 11 13 16 16 13 12 11 12 10 6 18 23 27 18 22 29 32 37 37 40 36 42 40 33 35 33
12 12 14 9 6 8 9 13 14 15 14 12 8 7 9 9 7 9 20 22 26 34 42 34 37 38 40 40 38 34 35 34

GFSFLT1_700_spd_108.txt.gz
Wind_Speed
23 19 26 19 24 23 26 27 29 32 36 39 40 42 42 42 43 45 45 48 48 48 48 49 46 44 43 42 35 34 32 29
21 22 25 24 21 23 24 26 28 29 31 34 38 43 46 49 50 49 49 51 52 51 50 50 53 52 47 46 38 37 35 33
18 15 26 17 19 21 23 24 26 27 30 32 34 38 43 49 51 56 59 57 57 53 56 55 56 52 55 48 43 41 37 35
14 17 18 14 21 21 23 25 27 29 31 33 35 38 41 44 49 53 55 58 59 63 58 60 61 56 44 47 38 40 35 34
17 19 12 15 17 19 20 21 22 26 29 31 35 37 39 42 48 51 54 55 61 60 57 53 60 56 51 49 34 39 35 34
21 12 13 14 14 16 18 20 23 25 28 29 33 36 37 39 43 48 52 57 59 65 59 54 49 56 54 52 48 49 37 38
14 11 13 14 14 17 21 22 24 27 30 32 33 35 35 35 36 39 45 46 57 52 53 54 45 43 47 49 52 51 41 41
13 14 14 16 19 21 23 24 26 28 31 32 34 33 33 31 28 32 36 43 52 42 53 48 44 42 40 44 45 50 35 40
15 16 17 20 22 26 27 29 28 28 30 30 28 28 30 29 30 30 31 38 44 52 27 39 40 42 40 40 43 44 43 40
13 17 20 23 27 32 33 33 28 28 29 30 26 27 28 27 27 29 32 34 35 43 38 37 38 41 43 43 40 45 38 44
15 21 25 29 33 36 38 33 29 28 29 29 27 25 26 22 22 25 25 27 33 35 35 36 34 35 39 36 43 46 43 48
18 25 31 36 37 39 34 32 28 27 27 27 28 25 25 22 20 23 23 23 27 36 37 37 39 32 35 38 39 41 46 39
26 30 34 37 36 35 29 28 27 26 25 24 27 26 27 25 23 23 26 30 31 33 36 38 36 33 26 31 37 39 41 40
27 29 30 32 30 30 28 29 28 26 25 23 24 26 26 26 27 26 28 27 28 35 34 33 36 34 33 32 32 37 42 33
26 26 27 28 27 27 25 26 25 24 24 23 24 23 23 28 30 35 32 27 29 32 34 28 37 28 29 33 36 43 42 38
26 24 23 23 24 23 22 22 22 21 21 21 20 20 22 20 22 27 30 33 29 32 35 37 35 24 27 28 32 37 38 35
23 19 19 20 20 19 18 17 17 17 18 20 20 20 18 18 20 24 25 32 35 23 39 50 30 31 31 30 31 32 36 35
18 14 14 16 14 12 11 11 13 16 18 19 19 17 15 13 13 13 18 25 27 25 38 49 28 39 33 32 32 35 29 31
14 11 12 11 6 5 6 9 12 14 17 17 16 16 14 11 9 10 9 14 17 25 18 18 28 30 38 32 35 34 33 39

GFSFLT1_700_spd_111.txt.gz
Wind_Speed
35 38 40 42 39 37 32 29 26 26 29 30 33 36 38 38 39 39 39 41 39 40 41 41 44 46 48 47 44 41 40 35
38 42 42 40 33 29 28 25 24 25 28 30 31 33 36 39 41 42 44 45 45 45 46 45 44 48 49 52 51 45 42 38
38 36 35 29 24 28 28 22 22 24 25 27 29 31 32 36 38 42 44 45 46 48 51 54 53 52 51 53 54 50 48 43
35 33 32 24 24 27 21 20 22 24 25 26 28 30 32 34 37 40 43 47 50 52 53 53 55 57 56 55 54 49 66 39
39 45 23 16 24 19 14 18 21 23 24 25 26 29 31 33 35 37 40 44 49 54 57 53 52 54 54 56 52 63 52 51
40 31 18 24 19 13 12 15 19 22 24 26 26 26 30 33 33 34 37 41 47 52 57 59 55 54 53 54 55 58 55 48
35 22 22 23 19 16 15 16 18 21 24 26 28 29 29 30 30 31 34 39 43 48 54 60 57 55 52 53 49 49 50 43
25 21 22 27 18 19 22 26 26 27 26 26 28 30 31 30 27 28 27 30 32 37 43 52 52 52 51 51 45 45 44 49
20 15 15 18 20 22 24 28 31 31 31 28 29 30 31 31 29 27 26 29 31 34 33 38 43 44 51 55 44 44 41 42
11 14 15 18 19 25 30 33 33 32 30 29 28 29 29 30 30 29 29 29 30 30 32 33 36 39 49 33 40 38 37 39
6 10 14 17 23 29 34 36 35 32 29 28 27 27 28 30 30 28 27 27 25 26 29 34 31 37 33 33 31 35 38 39
10 18 21 25 30 34 35 35 34 31 28 26 27 27 29 29 29 30 28 26 24 23 25 28 30 33 37 30 31 34 35 39
25 26 26 27 30 32 33 33 32 30 28 25 26 27 27 31 29 30 30 27 27 26 28 27 31 34 38 33 33 31 33 36
28 28 28 28 28 30 30 30 29 27 26 25 26 26 26 28 28 29 31 29 29 30 32 28 34 41 37 34 30 25 28 30
28 28 27 26 28 28 27 27 27 25 25 24 25 25 25 23 25 25 27 31 31 32 32 34 25 45 32 38 31 29 28 28
26 26 25 24 25 24 24 24 23 22 21 20 21 22 23 23 24 23 24 29 32 27 32 29 31 37 26 21 31 33 36 33
21 21 22 21 20 20 20 19 17 16 17 18 19 20 20 21 23 22 22 23 20 24 29 28 22 34 23 19 26 25 26 32
21 21 18 15 16 15 13 11 11 12 14 16 16 17 18 17 16 16 16 18 18 20 22 24 25 31 33 33 32 28 27 28
17 16 14 13 11 7 5 6 8 9 11 14 17 18 19 21 20 18 14 15 14 14 17 22 20 26 35 43 29 31 33 28

GFSFLT1_700_spd_114.txt.gz
Wind_Speed
43 48 47 42 41 42 41 40 40 39 43 41 36 38 37 35 35 36 37 39 40 41 44 42 40 41 42 44 43 42 42 40
45 52 49 45 43 44 41 38 36 35 35 36 31 32 36 37 38 38 39 41 42 43 44 45 46 43 44 44 45 45 46 45
47 47 45 45 44 42 37 35 34 33 33 33 32 29 30 34 37 39 40 42 45 47 48 47 47 48 48 48 47 46 48 47
38 40 40 44 40 31 27 29 32 33 30 29 28 29 29 31 34 36 39 43 44 47 47 48 50 52 54 53 52 48 46 49
43 44 46 36 26 21 22 25 27 25 25 25 26 27 29 31 33 35 36 39 43 46 49 50 52 53 56 56 52 52 50 52
39 42 38 23 20 22 18 21 28 24 23 24 24 26 27 29 31 33 36 37 40 42 45 48 51 54 56 55 55 55 52 54
41 39 26 19 21 20 17 20 31 27 28 30 31 28 27 28 30 30 31 33 35 40 43 46 50 54 57 54 53 52 52 52
40 32 22 19 14 15 21 27 28 26 30 33 34 35 34 31 29 29 28 29 29 32 39 42 45 46 48 51 56 53 53 55
30 26 18 15 15 16 19 19 22 25 29 31 34 35 35 33 31 30 28 27 28 29 31 38 39 40 38 43 50 53 52 55
22 17 6 5 10 17 18 21 26 27 28 30 32 34 34 33 31 30 31 29 28 28 30 32 36 36 37 35 38 43 45 49
11 7 5 10 14 17 21 27 30 31 31 32 33 33 32 31 30 30 31 31 31 30 29 28 31 33 32 35 37 41 42 44
17 16 15 18 24 23 24 25 27 30 31 31 30 29 29 30 31 31 32 32 32 32 30 29 29 29 30 35 39 38 40 35
22 21 20 20 23 25 26 26 28 30 31 28 26 26 27 28 30 33 35 33 32 31 32 31 30 28 30 29 33 40 42 36
25 26 25 23 23 23 25 25 25 25 24 24 24 25 26 27 28 32 35 34 32 29 32 34 34 33 34 33 36 35 38 35
26 28 28 27 25 23 24 24 24 23 21 22 22 23 24 25 27 31 32 30 28 27 31 33 32 37 36 34 37 40 41 33
27 27 25 24 23 21 22 22 20 18 18 18 18 19 20 22 24 26 26 24 24 25 24 29 26 29 32 35 36 37 38 40
25 22 21 20 19 17 16 15 14 13 14 13 15 16 16 18 20 21 21 23 24 24 21 22 22 26 30 22 31 22 23 26
18 15 14 13 13 13 10 8 8 8 9 10 11 13 16 19 20 20 18 17 18 17 18 20 22 24 26 17 24 28 27 29
14 13 12 11 10 9 7 6 6 6 7 8 11 14 17 19 21 24 25 26 27 27 23 16 13 20 22 20 24 21 26 22

GFSFLT1_700_spd_117.txt.gz
Wind_Speed
39 41 42 39 45 46 46 43 36 33 36 35 36 39 42 43 41 38 39 38 40 42 43 44 43 45 43 36 41 56 59 44
37 40 40 41 48 49 46 41 36 36 37 38 37 39 38 41 42 40 40 41 42 41 42 44 44 43 43 40 40 38 42 41
33 32 35 43 47 46 43 40 39 39 38 38 37 38 34 37 39 41 40 40 42 45 46 46 46 46 46 45 43 43 44 41
29 31 35 43 40 39 38 38 38 38 37 35 34 38 34 31 35 37 38 40 41 42 44 46 47 49 50 49 49 47 47 48
32 33 38 42 32 30 34 33 31 31 28 28 37 36 31 30 29 31 33 37 40 42 43 45 46 47 49 49 50 52 51 53
36 33 37 40 44 29 27 25 25 25 25 23 29 32 31 29 29 30 31 34 36 39 42 44 45 46 48 49 49 51 53 53
34 36 38 37 32 29 33 25 23 23 24 28 35 36 34 33 33 32 31 33 33 35 39 41 43 44 45 47 49 50 51 51
32 31 30 26 25 19 20 23 19 25 27 28 32 33 31 30 34 33 32 32 33 34 36 37 40 41 43 45 46 47 49 50
5 10 13 11 11 14 16 16 17 22 27 29 29 30 31 31 33 33 31 32 33 33 35 37 37 38 39 40 40 40 41 42
5 3 4 4 5 10 11 15 19 24 26 28 28 30 32 33 35 34 33 32 33 33 33 34 35 36 37 38 40 40 43 43
27 21 27 23 12 12 11 15 17 21 24 27 28 30 33 35 37 36 33 33 33 33 32 33 33 34 35 36 37 38 40 40
23 24 21 24 21 18 21 22 23 23 25 27 28 30 30 31 31 34 34 33 32 33 32 32 33 34 34 35 36 35 37 38
13 19 23 23 23 24 22 22 23 23 23 24 26 27 26 27 26 27 30 31 33 34 32 31 32 33 34 35 35 35 36 35
17 22 25 26 25 25 24 24 22 22 21 20 20 21 23 24 24 24 26 28 30 33 33 31 32 32 33 35 36 37 38 34
21 22 26 28 23 21 21 20 17 16 16 16 16 17 18 19 20 20 23 26 27 28 30 30 30 26 28 31 36 40 39 37
22 25 24 21 19 18 17 16 14 13 13 12 12 13 14 15 16 16 17 19 21 22 24 25 26 27 25 25 26 33 37 39
23 22 19 16 15 13 12 11 10 9 9 9 10 11 12 15 17 17 17 18 19 20 19 19 20 21 22 21 25 27 28 34
16 15 14 13 11 9 8 8 8 8 7 6 7 9 11 13 16 19 21 23 26 28 28 21 18 18 21 22 24 26 27 31
11 9 8 8 6 7 8 9 9 8 7 7 8 10 12 14 16 18 21 24 25 27 28 28 33 30 22 15 16 21 25 24

GFSFLT1_700_spd_120.txt.gz
Wind_Speed
28 30 34 39 41 42 38 32 31 33 35 35 33 32 32 32 34 37 40 41 39 39 41 44 48 46 44 42 45 46 48 45
30 30 28 29 33 35 35 34 34 35 36 35 34 33 34 34 37 40 40 38 37 38 42 43 44 47 46 45 44 40 44 37
26 28 26 24 26 31 33 36 37 37 36 35 34 33 34 35 36 40 40 39 39 39 40 43 46 46 47 45 45 45 45 40
26 26 24 24 26 33 36 37 38 36 34 32 33 34 35 32 37 41 37 38 39 40 41 41 43 47 48 48 48 47 46 43
21 21 25 28 29 34 36 36 40 32 32 30 33 34 33 37 36 34 33 33 35 36 39 41 41 43 45 46 47 49 49 48
23 26 30 28 33 36 36 34 37 16 22 27 32 28 36 34 34 32 34 32 33 34 36 38 39 39 41 43 44 45 47 48
28 29 35 34 31 36 34 33 30 33 25 23 25 26 30 34 39 36 35 32 34 36 35 37 38 39 40 40 41 42 44 45
23 24 26 26 27 32 44 45 42 25 18 22 22 24 31 32 32 33 31 30 29 31 34 36 37 38 38 39 39 40 40 41
14 19 20 18 13 8 11 9 13 19 20 23 23 28 29 31 32 34 33 31 31 32 31 34 36 37 37 39 39 39 38 37
6 10 17 14 16 19 12 10 11 13 19 22 24 27 30 33 35 36 34 34 32 31 32 35 35 36 35 37 38 38 38 38
10 11 14 16 16 15 18 17 18 19 21 23 24 25 30 32 33 32 31 33 34 32 31 33 35 35 34 36 36 37 37 37
8 12 15 19 18 14 17 16 20 24 27 29 30 28 28 29 30 30 30 30 29 29 30 31 33 33 35 35 35 37 38 37
11 14 19 23 24 24 19 21 22 22 22 23 25 24 25 26 26 25 25 25 27 29 29 30 32 32 33 33 33 35 37 37
16 19 22 24 26 24 20 21 22 23 21 21 20 19 20 21 22 22 22 23 23 25 26 27 30 30 30 30 32 34 36 39
18 22 25 25 21 18 18 18 17 17 16 15 14 14 15 14 13 14 16 17 19 19 21 23 25 27 27 28 29 31 35 37
21 23 26 23 17 15 15 15 14 11 10 8 8 8 7 8 11 14 16 18 21 21 21 20 20 21 23 24 27 30 29 28
22 23 23 19 15 12 10 9 8 9 9 9 7 5 4 6 10 12 15 18 20 21 23 28 29 24 20 18 21 25 26 28
21 20 17 15 13 11 8 6 6 7 8 6 5 4 6 10 10 13 13 14 17 17 19 22 26 29 32 29 24 19 19 25
17 15 14 12 8 4 3 4 6 6 5 4 7 12 10 9 12 13 13 15 17 18 19 20 20 20 23 27 31 33 30 23

GFSFLT1_700_spd_123.txt.gz
Wind_Speed
26 28 31 33 33 33 33 30 25 20 21 28 31 31 32 30 28 27 27 27 31 32 33 35 36 38 39 41 41 44 50 52
22 23 26 27 29 30 29 29 24 22 24 29 32 35 35 33 31 30 29 30 32 36 37 34 35 36 40 41 43 43 46 47
23 22 23 24 24 25 25 25 26 27 29 33 36 38 36 33 32 30 30 32 36 38 35 34 34 35 36 39 43 43 43 44
25 25 24 22 20 21 22 24 27 30 34 34 36 36 36 31 30 28 30 33 37 39 35 33 34 35 36 38 41 44 46 47
24 24 24 22 24 26 26 25 28 32 36 36 35 29 34 30 28 30 29 31 38 38 35 33 32 33 35 37 39 42 45 46
18 20 25 25 25 24 32 30 28 31 35 40 38 38 30 25 27 29 29 35 38 40 38 38 37 35 34 35 37 39 41 44
17 19 22 26 31 30 36 34 32 32 41 40 42 32 27 22 27 27 31 37 37 38 41 40 37 36 35 36 36 37 38 40
14 15 17 18 20 26 30 30 34 36 32 35 30 26 25 27 30 28 36 34 36 36 38 37 37 35 35 36 37 36 37 37
13 13 15 16 16 18 19 19 16 23 25 23 27 25 30 29 26 33 35 31 35 37 38 40 38 36 35 35 36 37 37 36
9 11 9 11 13 13 16 16 16 11 11 13 18 20 20 22 29 31 29 32 35 36 39 38 37 37 35 35 35 35 37 36
5 8 12 14 17 18 17 17 15 16 14 17 21 25 24 23 25 27 32 34 33 35 35 36 32 33 35 35 33 33 35 35
9 11 14 17 20 22 23 20 20 18 18 19 20 24 27 24 24 25 29 30 30 30 30 30 30 31 32 34 33 32 32 33
13 15 16 18 22 26 23 19 18 18 20 19 17 19 20 21 21 21 23 23 23 24 25 26 28 29 29 30 29 30 33 32
16 18 20 22 24 24 21 17 16 18 17 16 15 12 15 15 15 15 15 16 17 18 19 20 23 24 23 24 25 26 27 30
19 19 21 24 26 22 18 17 16 13 13 12 10 9 8 8 6 6 7 10 15 17 18 18 17 16 16 16 17 20 22 25
20 21 23 26 25 20 18 16 15 12 10 9 10 10 7 4 3 5 8 10 10 11 14 16 20 20 20 18 15 15 19 23
22 22 24 25 23 19 15 12 10 9 9 10 9 7 5 2 7 6 8 10 11 12 12 13 15 19 22 23 24 22 18 15
22 22 24 23 20 16 11 8 6 6 7 6 5 2 4 8 7 8 10 11 13 15 16 17 18 19 19 18 18 20 21 23
20 21 21 20 16 12 8 4 4 6 6 2 6 11 8 7 9 9 11 11 12 14 16 17 19 19 19 20 20 20 18 19

GFSFLT1_700_spd_126.txt.gz
Wind_Speed
27 28 28 29 29 29 28 26 24 22 22 27 29 34 36 36 34 33 32 29 25 24 23 23 25 26 29 34 38 38 40 47
26 26 26 27 27 28 27 26 25 23 21 23 27 31 35 38 39 38 36 33 29 26 25 27 29 31 30 31 37 40 40 40
22 24 25 27 27 28 28 28 28 24 23 24 27 31 35 37 38 38 38 35 31 29 29 28 30 34 32 31 34 37 40 40
23 26 27 27 26 26 23 25 25 25 23 25 28 31 34 37 35 35 35 34 34 32 31 30 31 33 31 31 33 36 38 39
25 25 24 23 21 21 18 18 25 26 24 26 29 31 28 35 37 34 33 34 34 32 29 31 34 35 35 34 35 35 38 37
15 12 11 12 14 17 21 26 29 26 28 29 33 35 31 33 36 38 35 31 35 33 31 37 39 41 35 36 39 38 38 38
6 10 13 14 15 16 18 20 23 26 28 35 34 34 38 38 40 40 42 35 37 32 36 39 41 40 38 37 39 40 39 39
6 7 9 11 12 14 16 18 20 19 21 28 31 35 38 37 42 45 51 40 29 36 37 43 41 41 39 37 37 39 38 39
5 8 8 9 12 14 16 18 19 20 18 17 15 19 26 29 33 29 33 40 35 36 42 39 40 39 41 41 39 39 39 38
5 6 8 10 13 16 17 20 21 20 20 20 17 17 18 16 19 21 22 25 28 35 34 33 35 36 38 39 39 39 39 38
7 8 10 13 16 19 22 24 21 21 20 21 22 21 22 20 21 20 20 22 26 27 28 30 31 32 34 34 35 37 36 36
12 12 13 15 17 21 24 26 23 21 21 22 21 20 22 19 19 22 23 20 22 24 27 26 25 27 29 30 30 32 33 34
17 15 16 17 20 23 25 26 23 20 20 19 18 16 16 13 14 12 13 12 14 18 18 18 20 21 23 24 26 27 30 30
21 20 19 20 22 24 26 23 21 20 20 18 15 11 10 10 7 6 4 4 5 7 9 10 13 15 14 14 16 17 20 23
25 23 22 23 23 25 26 22 21 19 17 14 11 11 11 10 6 2 2 4 4 6 8 12 14 18 17 14 13 12 13 16
25 24 23 23 24 25 24 21 18 16 13 10 11 11 11 9 4 5 5 6 7 8 10 11 13 12 13 15 16 15 17 15
22 24 23 23 23 25 23 19 16 12 10 8 9 9 8 4 4 5 6 7 9 10 12 14 15 15 17 16 16 15 15 15
19 21 23 22 23 23 20 15 12 9 8 7 7 3 4 7 5 5 8 9 9 11 12 14 16 18 19 19 18 17 17 16
21 22 21 21 21 20 14 11 9 6 4 2 4 5 4 3 4 5 6 8 9 11 12 14 15 17 19 20 21 21 21 20

GFSFLT1_700_spd_129.txt.gz
Wind_Speed
24 25 26 26 26 26 26 25 25 26 27 27 30 33 36 40 44 45 43 40 38 35 33 31 27 26 24 25 28 31 34 37
26 25 27 27 26 27 28 27 26 25 24 26 29 32 34 34 35 41 44 41 40 39 36 35 31 30 29 28 29 31 34 36
24 27 25 26 28 29 30 29 28 27 26 26 27 31 33 36 32 34 42 41 40 39 39 38 36 33 33 30 31 32 33 34
21 23 27 29 29 30 31 30 28 26 24 24 24 27 29 33 37 39 36 37 40 38 37 39 37 36 35 31 31 34 34 32
21 25 25 26 25 25 25 26 26 25 24 25 24 25 25 28 30 34 37 36 37 41 37 38 38 38 34 33 34 36 38 36
20 19 19 16 13 11 12 14 17 18 23 24 24 24 27 30 32 34 33 37 33 35 36 37 37 37 35 34 37 39 39 40
16 13 10 9 9 10 11 13 15 17 19 20 21 25 29 33 35 36 37 37 40 38 37 39 41 40 37 36 39 39 38 39
14 11 10 10 11 14 16 18 19 21 22 23 22 22 21 24 29 34 37 42 42 41 49 51 50 41 41 46 41 40 39 39
14 12 11 12 13 16 18 21 23 25 24 23 23 22 23 22 22 21 23 25 27 27 38 44 54 49 41 39 40 41 42 41
16 14 13 13 15 16 18 21 24 25 25 25 24 25 25 24 25 24 25 25 27 27 25 28 33 29 34 36 38 41 40 39
19 17 15 15 16 18 20 22 25 25 24 24 24 23 25 24 24 24 24 27 28 24 23 22 23 25 27 29 32 33 33 34
22 21 19 18 18 20 22 24 25 25 24 22 22 23 22 21 19 19 18 18 19 16 15 15 12 14 17 20 23 25 27 29
25 24 23 21 20 22 23 24 25 24 23 22 22 21 20 17 15 14 12 11 11 6 6 8 9 9 10 12 15 18 20 23
27 26 25 25 23 23 25 26 26 24 22 21 20 19 16 14 15 13 10 6 4 4 8 10 12 15 16 14 12 12 12 14
27 29 27 27 26 25 25 24 27 22 20 18 18 16 14 14 14 12 7 3 3 4 5 8 10 10 11 12 14 15 16 16
27 31 31 27 26 25 24 24 24 20 17 16 15 14 13 13 12 7 2 3 4 5 7 8 8 9 10 12 13 14 15 16
30 31 29 25 25 23 22 23 21 16 14 13 13 12 11 9 5 3 4 4 5 6 8 10 10 11 11 13 13 13 14 15
28 29 28 23 22 22 21 19 16 13 11 11 10 9 5 3 3 6 6 6 6 7 8 10 12 13 13 14 15 15 15 16
27 25 23 19 20 21 19 16 12 9 9 8 5 3 1 3 5 6 5 6 7 7 8 10 12 14 15 17 17 18 18 18

GFSFLT1_700_spd_132.txt.gz
Wind_Speed
21 22 22 23 23 24 24 24 24 25 27 27 29 31 33 35 37 37 40 40 41 43 42 41 39 36 34 33 32 29 28 29
22 22 22 24 25 26 26 27 27 26 27 28 29 31 33 35 38 39 38 39 43 41 45 41 41 38 37 37 35 34 32 32
22 22 26 23 24 25 27 27 28 29 29 29 29 29 34 33 38 39 41 41 39 40 42 40 41 40 40 39 39 37 34 33
24 24 22 26 26 25 26 26 26 27 27 27 26 28 32 31 36 37 37 39 42 39 34 40 39 40 41 40 40 40 38 32
22 23 25 24 22 22 23 23 21 20 20 22 24 28 30 31 32 32 34 33 33 34 40 40 35 39 40 40 40 39 39 36
22 23 21 21 20 19 19 18 17 17 17 19 20 21 22 26 29 31 31 33 33 35 34 33 36 36 37 38 38 37 37 38
19 19 18 19 18 18 17 18 18 19 21 21 21 23 22 22 22 25 30 36 38 38 36 38 36 38 38 39 39 37 34 38
18 17 18 18 15 16 17 19 20 22 24 25 25 25 25 25 23 22 22 24 29 34 35 35 35 40 43 46 43 42 45 45
19 18 19 18 17 17 19 21 22 23 25 26 27 27 26 26 26 25 25 25 26 27 26 23 27 33 40 45 48 51 51 44
18 20 20 20 19 18 19 21 23 24 26 27 27 27 26 25 25 26 26 26 25 26 24 22 26 30 33 27 31 30 34 38
19 23 22 22 21 20 21 22 23 25 27 28 26 26 25 25 25 25 24 23 22 22 23 21 24 28 24 24 26 28 29 30
20 25 26 24 23 23 23 23 24 25 27 27 26 25 24 24 23 23 20 19 18 16 14 13 14 16 21 22 18 18 23 26
20 25 28 27 25 26 25 24 25 26 27 27 25 22 22 21 20 19 18 16 14 7 4 7 9 8 8 10 8 6 8 12
16 23 29 31 26 26 27 26 25 26 26 25 23 20 20 18 17 16 17 17 13 8 3 3 6 9 9 9 11 11 13 14
22 25 31 32 26 27 27 26 25 26 26 24 20 18 18 16 16 15 14 12 9 6 5 4 4 4 6 8 9 10 10 11
29 26 29 27 26 28 26 25 24 25 23 21 18 16 16 15 14 13 9 6 7 7 6 6 6 6 7 8 9 10 10 12
27 26 28 24 28 26 25 24 22 22 20 17 15 15 13 12 11 8 5 6 9 9 8 8 7 7 7 8 9 10 11 11
23 25 27 25 26 26 21 19 20 19 17 14 13 13 11 8 6 6 8 9 9 8 8 7 8 8 9 9 9 10 11 11
27 28 25 25 26 21 15 17 17 16 13 11 10 6 5 5 6 9 9 8 8 7 6 7 8 9 10 12 12 12 12 12